User: anonymous   Login
Location: Newark
(48.5667°N, 7.8167°E)
Time: 02:25:26
(UTC+00:00)
Language:

ISS - Orbit

View from above orbital plane
View from above orbital plane
View from above satellite
View from above satellite

Ground track
Ground track

The orbit data is extracted from the following two-line orbital elements,

1 25544U 98067A   22277.67252396 -.00011725  00000-0 -19986-3 0  9994
2 25544  51.6412 154.1524 0003224 266.9628 188.3164 15.49705802362163
Epoch (UTC): 04 October 2022 16:08:26
Eccentricity: 0.0003224
inclination: 51.6412°
perigee height: 415 km
apogee height: 420 km
right ascension of ascending node: 154.1524°
argument of perigee: 266.9628°
revolutions per day: 15.49705802
mean anomaly at epoch: 188.3164°
orbit number at epoch: 36216

The dashed part of the orbit path shows where the satellite is in the earth's shadow,  

DLR